Starlink 32027

operational
NORAD ID: 60143 Int'l Des: 2024-120 Owner: SPXS Country: US Constellation: starlink
LEOCIRCULAR

About Starlink 32027

Description loading...

Live Position

Loading 3D Globe...

Upcoming Passes

Altitude History

Altitude vs Time

uPlot chart will show altitude changes over time

Two-Line Element Set

1 60143U 24120J 25351.28362484 -.00001036 00000-0 -22849-4 0 9997
2 60143 53.1626 342.3512 0001395 88.2836 271.8324 15.30191145 83842
Epoch: Dec 17, 2025 • Age: 6 hours

Current Status

Altitude 494.7 km
Velocity 7.62 km/s
Sub-Earth Point -53.25°S, 29.33°W
Launch Date Jun 27, 2024
Age 1.4 years
Type internet

Technical Details

Classification Payload
Mass 730.00 kg
Dry Mass 700.00 kg
Total Mass 730.00 kg
Length 0.30 m
Diameter 4.10 m
Span 29.00 m
Shape Box + pan
Manufacturer SPXS
Bus Type Starlink V2M
Phase Status In Orbit
Owner/State SPXS/US

Large Constellations

Loading constellations...